Location: Melbourne
(37.8170°S, 144.9670°E)
Time: 17:40:11
(UTC+11:00)

ISS - All Passes

Search period start: 31 March 2015 00:00
Search period end: 09 April 2015 23:00
Orbit: 396 x 405 km, 51.6° (Epoch: 30 March)

Date Brightness Start Highest point End Pass type
(mag) Time Alt. Az. Time Alt. Az. Time Alt. Az.
31 Mar - 10:54:16 10° NW 10:57:33 89° SSW 11:00:52 10° SE daylight
31 Mar - 12:32:18 10° WSW 12:34:23 15° SSW 12:36:26 10° SSE daylight
31 Mar - 15:48:12 10° S 15:49:38 12° SSE 15:51:06 10° SE daylight
31 Mar - 17:23:24 10° SW 17:26:41 52° SE 17:29:56 10° ENE daylight
31 Mar - 19:00:54 10° W 19:02:49 14° NW 19:04:37 10° NNW daylight
01 Apr - 10:01:04 10° NNW 10:04:09 41° NE 10:07:18 10° ESE daylight
01 Apr - 11:37:59 10° W 11:40:42 23° SSW 11:43:24 10° SSE daylight
01 Apr - 16:30:10 10° SSW 16:33:07 29° SSE 16:36:05 10° E daylight
01 Apr - 18:06:34 10° WSW 18:09:30 29° NW 18:12:24 10° NNE daylight
02 Apr - 09:08:24 10° N 09:10:49 20° NE 09:13:20 10° E daylight
02 Apr - 10:43:58 10° WNW 10:47:04 38° SW 10:50:12 10° SE daylight
02 Apr - 12:23:28 10° SSW 12:24:15 11° SSW 12:24:58 10° S daylight
02 Apr - 15:37:01 10° SSW 15:39:26 18° SSE 15:41:53 10° ESE daylight
02 Apr - 17:12:49 10° SW 17:16:08 62° NW 17:19:24 10° NE daylight
03 Apr - 09:50:14 10° NW 09:53:30 76° SW 09:56:49 10° SE daylight
03 Apr - 11:28:31 10° SW 11:30:24 14° SSW 11:32:16 10° SSE daylight
03 Apr - 14:44:01 10° S 14:45:39 13° SSE 14:47:19 10° SE daylight
03 Apr - 16:19:19 10° SW 16:22:38 61° SE 16:25:55 10° ENE daylight
03 Apr - 17:57:15 10° WNW 17:58:42 12° NW 18:00:00 10° NNW daylight
04 Apr - 08:56:52 10° NNW 09:00:02 49° NE 09:03:14 10° ESE daylight
04 Apr - 10:34:02 10° WSW 10:36:37 20° SSW 10:39:11 10° SSE daylight
04 Apr - 15:25:57 10° SSW 15:29:00 32° SSE 15:32:03 10° E daylight
04 Apr - 17:02:32 10° WSW 17:05:19 24° NW 17:08:04 10° N daylight
05 Apr - 07:03:58 10° N 07:06:35 23° NE 07:09:17 10° ESE daylight
05 Apr - 08:39:51 10° W 08:42:53 33° SSW 08:45:56 10° SE daylight
05 Apr - 13:32:43 10° SSW 13:35:15 20° SSE 13:37:50 10° ESE daylight
05 Apr - 15:08:37 10° WSW 15:11:52 52° NW 15:15:06 10° NE daylight
06 Apr - 06:12:14 10° NE 06:13:11 11° NE 06:14:16 10° ENE visible
06 Apr - 07:45:58 10° WNW 07:49:13 65° SW 07:52:31 10° SE daylight
06 Apr - 09:24:28 10° SW 09:26:10 13° SSW 09:27:50 10° S daylight
06 Apr - 12:39:35 10° SSW 12:41:23 14° SSE 12:43:15 10° SE daylight
06 Apr - 14:14:59 10° SW 14:18:19 72° SE 14:21:37 10° NE daylight
06 Apr - 15:53:48 10° WNW 15:54:19 10° NW 15:54:42 10° NW daylight
07 Apr - 06:52:25 10° NW 06:55:37 58° NE 06:58:53 10° ESE daylight
07 Apr - 08:29:49 10° WSW 08:32:16 19° SSW 08:34:43 10° SSE daylight
07 Apr - 11:46:53 10° S 11:47:26 10° SSE 11:48:03 10° SSE daylight
07 Apr - 13:21:31 10° SW 13:24:37 36° SSE 13:27:44 10° ENE daylight
07 Apr - 14:58:16 10° W 15:00:53 21° NW 15:03:26 10° N daylight
08 Apr - 05:59:19 10° NNW 06:02:05 26° NE 06:04:56 10° ESE visible
08 Apr - 07:35:29 10° W 07:38:26 30° SSW 07:41:24 10° SSE daylight
08 Apr - 12:28:10 10° SSW 12:30:49 22° SSE 12:33:29 10° E daylight
08 Apr - 14:04:10 10° WSW 14:07:22 44° NW 14:10:31 10° NNE daylight
09 Apr - 05:07:04 10° NNE 05:08:35 13° NE 05:10:14 10° E visible
09 Apr - 06:41:27 10° WNW 06:44:40 55° SW 06:47:56 10° SE daylight
09 Apr - 08:20:11 10° SW 08:21:40 12° SSW 08:23:08 10° S daylight
09 Apr - 11:34:55 10° SSW 11:36:53 15° SSE 11:38:54 10° ESE daylight
09 Apr - 13:10:24 10° SW 13:13:44 83° SE 13:17:02 10° NE daylight
